Overview Statistics Trail Chart Weather Telemetry Raw packets
 

This is the latest recevied weather packets stored in our database for station/object K9MWD. If no packets are shown the sender has not sent any weather packets the latest 10 day(s).

<< 47 48 49 50 51 52 53 >>
Time Temp. Humidity Pressure Rain* Wind** Luminosity Snow
1788312939 32.78° C 52% 1013.3 hPa 0 mm - 0 W/m² -
1788312635 32.78° C 52% 1013.4 hPa 0 mm - 0 W/m² -
1788312330 32.78° C 51% 1013.5 hPa 0 mm - 0 W/m² -
1788312025 32.78° C 52% 1013.1 hPa 0 mm - 0 W/m² -
1788311721 32.78° C 51% 1013.1 hPa 0 mm - 0 W/m² -
1788311420 32.78° C 51% 1013.3 hPa 0 mm - 0 W/m² -
1788311120 32.78° C 51% 1013.2 hPa 0 mm - 1 W/m² -
1788310816 33.33° C 50% 1013.2 hPa 0 mm - 1 W/m² -
1788310514 33.33° C 50% 1013.3 hPa 0 mm - 3 W/m² -
1788310210 33.33° C 50% 1013.2 hPa 0 mm - 5 W/m² -
1788309909 33.33° C 50% 1013.3 hPa 0 mm - 8 W/m² -
1788309605 33.89° C 49% 1013.1 hPa 0 mm - 11 W/m² -
1788309300 33.89° C 48% 1013.1 hPa 0 mm - 16 W/m² -
1788308995 35° C 46% 1013.1 hPa 0 mm - 20 W/m² -
1788308690 35° C 45% 1013 hPa 0 mm - 24 W/m² -
1788308390 35° C 44% 1012.9 hPa 0 mm - 28 W/m² -
1788308084 35° C 45% 1013 hPa 0 mm - 30 W/m² -
1788307780 35° C 45% 1013.2 hPa 0 mm - 34 W/m² -
1788307475 35° C 44% 1013 hPa 0 mm - 30 W/m² -
1788307170 35° C 45% 1013.1 hPa 0 mm - 38 W/m² -
1788306865 35.56° C 44% 1013.1 hPa 0 mm - 49 W/m² -
1788306561 36.11° C 43% 1013.1 hPa 0 mm - 87 W/m² -
1788306259 35.56° C 43% 1013.1 hPa 0 mm - 100 W/m² -
1788305954 36.11° C 42% 1013.1 hPa 0 mm - 121 W/m² -
1788305650 36.11° C 43% 1013.3 hPa 0 mm - 139 W/m² -

* Rain latest hour (hover to see other rain measurements)
** Current wind speed in m/s (hover to see current wind gust speed)